Regional Weather Roundup
Issued by NWS

Home | Current Version | Previous Version | Graphics & Text | Print | Product List | Glossary Off
Versions: 1 2 3 4 5 6 7 8 9 10 11 12 13 14 15 16 17 18 19 20 21 22 23 24 25 26 27 28 29 30 31 32 33 34 35 36 37 38 39 40 41 42 43 44 45 46 47 48 49 50

000
ASUS43 KFSD 231510
RWRSD

WEATHER ROUNDUP FOR SOUTH DAKOTA
NATIONAL WEATHER SERVICE SIOUX FALLS SD
900 AM CST SUN NOV 23 2014

NOTE: "FAIR" INDICATES FEW OR NO CLOUDS BELOW 12,000 FEET WITH NO
SIGNIFICANT WEATHER AND/OR OBSTRUCTIONS TO VISIBILITY.


SDZ001>005-009-010-012>017-231600-
NORTHWEST AND NORTH CENTRAL SOUTH DAKOTA

CITY           SKY/WX    TMP DP  RH WIND       PRES   REMARKS
BUFFALO          N/A     35  24  64 W26G35    29.56R WCI  22
FAITH            N/A     36  26  67 W28G35    29.59R
MOBRIDGE       CLOUDY    39  31  72 NW14      29.50S
$$

SDZ012>016-024>037-041>051-057-063-072>074-231600-
SOUTHWEST AND SOUTH CENTRAL SOUTH DAKOTA

CITY           SKY/WX    TMP DP  RH WIND       PRES   REMARKS
RAPID CTY ARPT CLEAR     38  20  48 NW25G39   29.68R
PIERRE         MOCLDY    37  31  78 W16       29.59R
CUSTER         CLEAR     28  14  55 NW15G23   29.67R WCI  16
ELLSWORTH AFB  CLEAR     37  20  50 NW25G33   29.66R
PHILIP         CLEAR     43  26  51 NW22G30   29.63R
PINE RIDGE     CLEAR     31  22  69 W7        29.71R WCI  24
SPEARFISH      MOCLDY    34  19  55 W26G36    29.72R WCI  21
WINNER         FAIR      40  30  67 NW14      29.64R
$$

SDZ004>011-016>023-039-040-231600-
NORTHEAST SOUTH DAKOTA

CITY           SKY/WX    TMP DP  RH WIND       PRES   REMARKS
ABERDEEN       CLOUDY    38  32  79 W13       29.52R
WATERTOWN      CLOUDY    37  33  85 NW12      29.48S
SISSETON         N/A     40  36  86 NW15      29.45S
$$

SDZ017-020-022-023-036>040-048>070-231600-
SOUTHEAST SOUTH DAKOTA

CITY           SKY/WX    TMP DP  RH WIND       PRES   REMARKS
SIOUX FALLS    LGT RAIN  40  36  86 NW16      29.50R
HURON          CLOUDY    37  33  85 W15       29.55R
CHAMBERLAIN    CLOUDY    37  32  81 W10       29.61R
YANKTON        CLOUDY    39  36  87 NW16      29.57R
$$

ABBREVIATIONS USED IN REMARKS
   TC - TEMPERATURE IN CELSIUS
  WCI - WIND CHILL INDEX
   HX - HEAT INDEX
  VSB - VISIBILITY



USA.gov is the U.S. government's official web portal to all federal, state and local government web resources and services.